Home   Weather   Euskirchen   Past weeks

Flag for Germany Past Weather in Euskirchen, North Rhine-Westphalia, Germany — Yesterday and Last 2 Weeks

Now
50 °F

Passing clouds.


Feels Like: 44 °F
Forecast: 49 / 51 °F
Wind: 16 mph from West

Location: Noervenich

Current Time: Feb 20, 2017 at 9:08:08 pm

Latest Report: Feb 20, 2017 at 8:20 pm


Visibility: N/A

Pressure: 29.98 "Hg

Humidity: 94%

Dew Point: 48 °F

Location of EuskirchenLocation

Past Weather in Euskirchen — Graph

°F

Euskirchen Temperature Yesterday

Maximum temperature yesterday: 50 °F (at 2:20 pm)
Minimum temperature yesterday: 36 °F (at 12:20 am)
Average temperature yesterday: 42 °F

High & Low Weather Summary for the Past Weeks

 TemperatureHumidityPressure
High57 °F (Feb 15, 3:20 pm)100% (Feb 6, 5:20 am)30.51 "Hg (Feb 6, 5:20 am)
Low28 °F (Feb 10, 12:20 am)46% (Feb 14, 2:20 pm)29.65 "Hg (Feb 5, 7:20 pm)
Average40 °F80%30.22 "Hg
* Reported Feb 5 7:20 pm — Feb 20 7:20 pm, Euskirchen, Weather by CustomWeather, © 2017

Note: Actual official high and low records may vary slightly from our data, if they occured in-between our weather recording intervals... More about our weather records

Advertising

Euskirchen Weather History for the Previous 24 Hours

Scroll right to see more
 ConditionsComfort  
Time TempWeatherWind HumidityBarometerVisibility
7:20 pm
Mon, Feb 20
50 °FPassing clouds.17 mph88%29.98 "HgN/A
6:20 pm50 °FPassing clouds.16 mph88%29.98 "HgN/A
5:20 pm52 °FPartly sunny.15 mph82%29.98 "HgN/A
5:05 pm52 °FPartly sunny.17 mph82%29.98 "HgN/A
4:20 pm52 °FPartly sunny.16 mph82%29.98 "HgN/A
3:20 pm52 °FPartly sunny.16 mph82%30.01 "HgN/A
2:20 pm52 °FPartly sunny.13 mph77%30.01 "HgN/A
1:20 pm50 °FPartly sunny.10 mph82%30.04 "HgN/A
12:20 pm50 °FRain. Partly sunny.16 mph82%30.07 "HgN/A
11:20 am50 °FPartly sunny.13 mph82%30.07 "HgN/A
10:20 am48 °FPartly sunny.10 mph82%30.09 "HgN/A
9:40 am48 °FPartly sunny.7 mph82%30.09 "HgN/A
9:20 am46 °FPartly sunny.5 mph87%30.09 "HgN/A
8:20 am46 °FPartly sunny.5 mph82%30.09 "HgN/A
7:20 am46 °FPartly cloudy.5 mph82%30.09 "HgN/A
6:20 am45 °FPassing clouds.7 mph87%30.12 "Hg6 mi
5:20 am46 °FPassing clouds.6 mph82%30.12 "HgN/A
4:20 am46 °FPassing clouds.10 mph82%30.12 "HgN/A
3:20 am46 °FPassing clouds.9 mph82%30.12 "HgN/A
2:20 am46 °FPassing clouds.9 mph87%30.15 "HgN/A
1:20 am46 °FPartly cloudy.7 mph87%30.18 "HgN/A
12:20 am45 °FPartly cloudy.5 mph93%30.15 "HgN/A
11:20 pm
Sun, Feb 19
45 °FPartly cloudy.8 mph93%30.15 "HgN/A
10:20 pm45 °FPartly cloudy.7 mph93%30.18 "HgN/A
9:20 pm45 °FPassing clouds.8 mph93%30.15 "HgN/A
Weather by CustomWeather, © 2017

See weather overviewHow to use our weather pages